Regional Weather Roundup
Issued by NWS

Home | Current Version | Previous Version | Graphics & Text | Print | Product List | Glossary On
Versions: 1 2 3 4 5 6 7 8 9 10 11 12 13 14 15 16 17 18 19 20 21 22 23 24 25 26 27 28 29 30 31 32 33 34 35 36 37 38 39 40 41 42 43 44 45 46 47 48 49 50
000
ASUS45 KSLC 301710
RWRUT

UTAH REGIONAL WEATHER ROUNDUP
NATIONAL WEATHER SERVICE SALT LAKE CITY UT
1100 AM MDT SAT JUL 30 2016

UTZ001>011-023>025-301800-

NORTHERN UTAH

CITY           SKY/WX    TMP DP  RH WIND       PRES   REMARKS
BRIGHAM CITY     N/A     83  46  27 NW12      30.00R
HILL AFB       MOSUNNY   88  43  21 SE3       30.01S
LOGAN          PTSUNNY   73  49  42 NW9       30.01R
OGDEN          MOSUNNY   88  42  20 SE7       29.98R
PROVO AIRPORT  MOSUNNY   88  46  23 VRB3      30.02F
SALT LAKE CITY PTSUNNY   91  46  21 S12       29.96S
VERNAL         CLOUDY    81  35  19 N5        30.10R
WENDOVER       CLOUDY    86  45  23 E14       29.97F
HEBER CITY     MOSUNNY   77  37  24 CALM      30.10S

$$

UTZ012>022-026-027-301800-

SOUTHERN/CENTRAL UTAH

CITY           SKY/WX    TMP DP  RH WIND       PRES   REMARKS
BLANDING       MOSUNNY   80  43  27 S5        30.25S
BRYCE CANYON   PTSUNNY   80  40  23 W8        30.29S
CEDAR CITY     MOSUNNY   85  50  29 SW14G22   30.14S
DELTA          PTSUNNY   86  37  17 S10G18    30.04F
MILFORD        SUNNY     87  51  28 S24G36    30.06F
MOAB/CYNLANDS  CLOUDY    90  42  18 SE12      30.02S
PRICE          PTSUNNY   84  39  20 SW8       30.16R
ST GEORGE      MOSUNNY   90  54  29 W12       30.00S

$$

REGIONAL REPORTS     COLORADO/ARIZONA

CITY           SKY/WX    TMP DP  RH WIND       PRES   REMARKS
CRAIG, CO      SUNNY     79  38  22 N5        30.16F
GRAND JUNCTION MOSUNNY   85  39  19 S9        30.06S
RIFLE          SUNNY     80  41  24 NW3       30.13F
MONTROSE       MOSUNNY   77  42  28 N7        30.17S
CORTEZ         SUNNY     83  45  26 VRB3      30.17F
PAGE, AZ       PTSUNNY   90  46  21 VRB6      30.03R
GRAND CANYON   MOSUNNY   82  46  28 N9        30.26R
KINGMAN        MOSUNNY   81  61  50 SW8       30.04F
FLAGSTAFF      SUNNY     80  48  32 W8        30.25F

$$

REGIONAL REPORTS    NEVADA/IDAHO/WYOMING

CITY           SKY/WX    TMP DP  RH WIND       PRES   REMARKS
LAS VEGAS, NV  MOSUNNY   96  56  26 SW9G18    29.86F HAZE    HX  94
ELY            MOSUNNY   81  45  28 S7        30.17F
ELKO           MOSUNNY   88  42  20 SW8       30.04S
POCATELLO, ID  MOSUNNY   79  46  31 SW5       29.98R
BURLEY         LGT RAIN  74  58  57 W8        29.96R
EVANSTON, WY   SUNNY     82  34  17 SW12      30.19F
ROCK SPRINGS   SUNNY     79  39  23 VRB6      30.17F
KEMMERER         N/A     81  30  16 SW9       30.20F

$$



USA.gov is the U.S. government's official web portal to all federal, state and local government web resources and services.